ARIANE 3 DEB, 33536

Orbit data source: Space-Track

ARIANE 3 DEB, 33536 is space debris in HEO originally from a launch on Thu, 08 Sep 1988 UTC launched from the French Guiana (FRGUI). Debris objects in space refer to the collection of defunct objects orbiting the Earth. Examples of debris include non-operational satellites, rocket bodies, and fragments generated from explosions, collisions, or faulty payload assembly.

Loading next visibility...
Identifier
33536, 1988-081L
Orbit
HEO
Country
Flag of FRFR
Related business
Manufacturer
Unknown
Mission
Spacecraft
Bus & Motor
Unknown
Mass
Unknown
Launch date (UTC)
1988-09-08 (37 years ago)
Launch vehicle
Unknown
Launch site
French Guiana (FRGUI)
Object type
Payload
Rocket body
Debris
Shape & HBR
Unknown shape, 1.1 m
Radar Cross Section
Small (<0.1 m²)

Expand to show TLE details & history
Last TLE update: 2 days ago

TLE from 2 days ago
0 ARIANE 3 DEB
1 33536U 88081L   25307.46527997 -.00000104  00000-0  00000-0 0  9997
2 33536   6.8698 347.1037 6932511  12.2007  49.1402  2.15583053168684
Epoch: 2025-11-03T11:10Z
TLE epoch observation values (Epoch: 2025-11-03T11:10:00.189Z)
Latitude
3.90009°
Longitude
-77.91872°
Altitude
18,514.713 km
Speed
4.034 km/s
True Right ascension
08h 50m 11s
True Declination
3° 53' 36"
Sunlit
Object was in daylight at epoch
Visualization orbit readout
Latitude
Unknown
Longitude
Unknown
Altitude
Unknown
Speed
Unknown
Apparent Right ascension
Unknown
Apparent Declination
Unknown
Sunlit
N/A
Visualization observer readout
Local Sidereal Time
03:27:49
Azimuth
Unknown
Elevation
Unknown
Doppler factor
Unknown
Orbital elements
Apogee altitude
36,489.062 km
Perigee altitude
1,387.673 km
Semi-major axis
25,316.504 km
Eccentricity
0.69325
Inclination
6.8698°
RAAN
347.1037°
Arg. of periapsis
12.2007°
True anomaly
133.05529°
Mean anomaly
49.1402°
Eccentric anomaly
88.8526°
Mean motion
0.53881 °/min
Orbital period
668.14 mins
BSTAR
0
Loading maneuver chart data...
Computing Atmospheric mass density...
Loading historical data...
Loading historical data...
Loading historical data...
Loading historical data...
Loading historical data...
Loading historical data...
Loading historical data...

Documentation

Showing up to 5 results
|